Weather History for Laramie, WY

Change the Weather History Date:

Thursday, March 7, 2013

  Actual Average Record
Temperature  
Mean Temperature 39 °F 29 °F  
Max Temperature 52 °F 41 °F 55 °F (1986)
Min Temperature 26 °F 17 °F -18 °F (1998)
Degree Days  
Heating Degree Days 26 36  
Month to date heating degree days 225 260  
Since 1 July heating degree days 6129 6436  
Cooling Degree Days 0 0  
Month to date cooling degree days 0 0  
Year to date cooling degree days 0 0  
Moisture  
Dew Point 20 °F    
Average Humidity 50    
Maximum Humidity 75    
Minimum Humidity 24    
Precipitation  
Precipitation 0.00 in 0.02 in 0.22 in (1961)
Month to date precipitation T 0.11  
Year to date precipitation 0.57 0.72  
Sea Level Pressure  
Sea Level Pressure 29.85 in    
Wind  
Wind Speed 8 mph (SSW)    
Max Wind Speed 26 mph    
Max Gust Speed 33 mph    
Visibility 10 miles    
Events      
T = Trace of Precipitation, MM = Missing Value Source: NWS Daily Summary

Daily Weather History Graph

Daily Weather History Graph

Search for Another Location

Airport:

Trip Planner

Search our weather history database for the weather conditions in past years. The results will help you decide how hot, cold, wet, or windy it might be!

Date:

Astronomy

Mar. 07, 2013 Rise Set
Actual Time 6:27 AM MST 6:00 PM MST
Civil Twilight 5:59 AM MST 6:28 PM MST
Nautical Twilight 5:27 AM MST 7:00 PM MST
Astronomical Twilight 4:55 AM MST 7:32 PM MST
Moon 3:31 AM MST (3/7) 1:49 PM MST (3/7)
Length of Visible Light 12h 28m
Length of Day
11h 33m
Waning Crescent, 19% of the Moon is Illuminated
Mar 7
Waning Crescent
Mar 11
New
Mar 19
First Quarter
Mar 27
Full
Apr 2
Last Quarter

Hourly Weather History & Observations

Time (MST) Temp. Windchill Dew Point Humidity Pressure Visibility Wind Dir Wind Speed Gust Speed Precip Events Conditions
12:53 AM 33.1 °F 25.5 °F 16.0 °F 50% 29.73 in 10.0 mi SW 9.2 mph - N/A   Clear
1:53 AM 41.0 °F 31.9 °F 15.1 °F 35% 29.69 in 10.0 mi WSW 19.6 mph 29.9 mph N/A   Clear
2:53 AM 37.0 °F 30.4 °F 15.1 °F 41% 29.73 in 10.0 mi SW 9.2 mph - N/A   Clear
3:53 AM 37.9 °F 32.1 °F 14.0 °F 38% 29.72 in 10.0 mi West 8.1 mph - N/A   Clear
4:53 AM 33.1 °F 26.9 °F 16.0 °F 50% 29.76 in 10.0 mi WSW 6.9 mph - N/A   Clear
5:53 AM 33.1 °F - 17.1 °F 52% 29.84 in 10.0 mi Calm Calm - N/A   Clear
6:53 AM 32.0 °F 24.2 °F 19.9 °F 61% 29.92 in 10.0 mi NNE 9.2 mph - N/A   Clear
7:53 AM 33.1 °F 26.1 °F 21.9 °F 64% 29.95 in - NE 8.1 mph - N/A   Clear
8:53 AM 37.0 °F 28.5 °F 25.0 °F 62% 29.94 in 10.0 mi ENE 13.8 mph - N/A   Clear
9:53 AM 42.1 °F 35.7 °F 25.0 °F 51% 29.89 in 10.0 mi NE 11.5 mph - N/A   Clear
10:53 AM 48.0 °F - 21.9 °F 36% 29.87 in 10.0 mi Variable 4.6 mph - N/A   Clear
11:40 AM 51.8 °F - 15.8 °F 24% 29.96 in 10.0 mi SSW 16.1 mph 25.3 mph N/A   Scattered Clouds
11:53 AM 51.1 °F - 15.1 °F 24% 29.84 in 10.0 mi SW 11.5 mph 20.7 mph N/A   Scattered Clouds
12:53 PM 48.9 °F - 25.0 °F 39% 29.83 in 10.0 mi North 15.0 mph - N/A   Mostly Cloudy
1:53 PM 48.9 °F - 19.9 °F 32% 29.79 in 10.0 mi SE 3.5 mph - N/A   Mostly Cloudy
2:53 PM 50.0 °F - 19.0 °F 29% 29.79 in 10.0 mi Variable 3.5 mph - N/A   Overcast
3:53 PM 48.9 °F - 24.1 °F 38% 29.80 in 10.0 mi NNW 9.2 mph - N/A   Overcast
4:53 PM 46.0 °F 43.1 °F 25.0 °F 44% 29.85 in 10.0 mi North 5.8 mph - N/A   Overcast
5:53 PM 41.0 °F 39.0 °F 26.1 °F 55% 29.90 in 10.0 mi ENE 3.5 mph - N/A   Overcast
6:53 PM 39.0 °F 35.7 °F 24.1 °F 55% 29.91 in 10.0 mi SE 4.6 mph - N/A   Mostly Cloudy
7:53 PM 33.1 °F - 23.0 °F 66% 29.95 in 10.0 mi Calm Calm - N/A   Clear
8:53 PM 30.9 °F 22.2 °F 21.9 °F 69% 29.94 in 10.0 mi South 10.4 mph - N/A   Clear
9:53 PM 28.9 °F 21.1 °F 21.0 °F 72% 29.92 in 10.0 mi South 8.1 mph - N/A   Clear
10:53 PM 28.9 °F 21.1 °F 21.0 °F 72% 29.88 in 10.0 mi South 8.1 mph - N/A   Clear
11:53 PM 30.0 °F 21.7 °F 21.0 °F 69% 29.86 in 10.0 mi South 9.2 mph - N/A   Clear